Tracking 35334 objects as of 13-Sep-2026
HD Live streaming from Space Station
objects crossing your sky now

STARLINK-38167

Track STARLINK-38167 now!
10-day predictions
STARLINK-38167 is classified as:


NORAD ID: 100257
Int'l Code: 2026-181M
Launch date: August 8, 2026
Source: United States (US)
Launch site: AIR FORCE WESTERN TEST RANGE (AFWTR)
Your satellite tracking list
Your tracking list is empty




NASA's NSSDC Master Catalog

Two Line Element Set (TLE):
1 A0257U 26181M   26256.10372095  .00177999  00000-0  11681-2 0  9991
2 A0257  97.2827 299.2970 0001231  72.5795 287.5605 15.75218390  6797
Source of the keplerian elements: AFSPC